| time (UTC) | temp F | wind direction | speed MPH | gust MPH | rain 1hr in | rain 24hr in | rain mn in | humidity % | barometer mb |
| 20260509154803 | 74 | 231 | 6.0 | 16.0 | 0.00 | 0.00 | 0.00 | 60 | 1009.5 |
| 20260509154302 | 74 | 224 | 4.0 | 16.0 | 0.00 | 0.00 | 0.00 | 63 | 1009.5 |
| 20260509153302 | 73 | 216 | 3.0 | 9.0 | 0.00 | 0.00 | 0.00 | 67 | 1009.4 |
| 20260509152305 | 72 | 262 | 2.0 | 10.0 | 0.00 | 0.00 | 0.00 | 66 | 1009.5 |
| 20260509151802 | 71 | 118 | 3.0 | 10.0 | 0.00 | 0.00 | 0.00 | 66 | 1009.5 |
| 20260509150802 | 71 | 275 | 6.0 | 10.0 | 0.00 | 0.00 | 0.00 | 64 | 1009.5 |
| 20260509150303 | 70 | 221 | 2.0 | 12.0 | 0.00 | 0.00 | 0.00 | 68 | 1009.4 |
| 20260509145801 | 70 | 258 | 5.0 | 12.0 | 0.00 | 0.00 | 0.00 | 67 | 1009.5 |
| 20260509145305 | 69 | 268 | 7.0 | 12.0 | 0.00 | 0.00 | 0.00 | 67 | 1009.5 |
| 20260509144802 | 69 | 213 | 5.0 | 9.0 | 0.00 | 0.00 | 0.00 | 68 | 1009.5 |
| 20260509144302 | 68 | 255 | 3.0 | 7.0 | 0.00 | 0.00 | 0.00 | 69 | 1009.4 |
| 20260509143803 | 67 | 186 | 3.0 | 9.0 | 0.00 | 0.00 | 0.00 | 72 | 1009.4 |
| 20260509142306 | 66 | 243 | 2.0 | 7.0 | 0.00 | 0.00 | 0.00 | 77 | 1009.5 |
| 20260509141802 | 65 | 237 | 4.0 | 7.0 | 0.00 | 0.00 | 0.00 | 77 | 1009.5 |
| 20260509141301 | 64 | 275 | 2.0 | 7.0 | 0.00 | 0.00 | 0.00 | 79 | 1009.5 |
| 20260509140802 | 63 | 231 | 3.0 | 6.0 | 0.00 | 0.00 | 0.00 | 81 | 1009.5 |
| 20260509140302 | 62 | 243 | 2.0 | 6.0 | 0.00 | 0.00 | 0.00 | 85 | 1009.5 |
| 20260509135802 | 61 | 300 | 4.0 | 6.0 | 0.00 | 0.00 | 0.00 | 86 | 1009.4 |
| 20260509134802 | 58 | 221 | 4.0 | 7.0 | 0.00 | 0.00 | 0.00 | 95 | 1009.3 |
| 20260509133302 | 56 | 234 | 3.0 | 6.0 | 0.00 | 0.00 | 0.00 | 97 | 1009.3 |
| 20260509132802 | 56 | 274 | 4.0 | 6.0 | 0.00 | 0.00 | 0.00 | 97 | 1009.3 |
| 20260509132306 | 56 | 252 | 0.0 | 4.0 | 0.00 | 0.00 | 0.00 | 97 | 1009.3 |
| 20260509131304 | 55 | 247 | 2.0 | 7.0 | 0.00 | 0.00 | 0.00 | 97 | 1009.3 |
| 20260509130802 | 55 | 250 | 2.0 | 7.0 | 0.00 | 0.00 | 0.00 | 97 | 1009.5 |
| 20260509130301 | 55 | 210 | 1.0 | 4.0 | 0.00 | 0.00 | 0.00 | 97 | 1009.4 |
| 20260509125803 | 54 | 248 | 0.0 | 3.0 | 0.00 | 0.00 | 0.00 | 97 | 1009.4 |
| 20260509125307 | 53 | 0 | 0.0 | 3.0 | 0.00 | 0.00 | 0.00 | 97 | 1009.3 |
| 20260509124802 | 53 | 0 | 1.0 | 3.0 | 0.00 | 0.00 | 0.00 | 97 | 1009.4 |
| 20260509124301 | 52 | 0 | 1.0 | 2.0 | 0.00 | 0.00 | 0.00 | 97 | 1009.3 |
| 20260509123303 | 49 | 0 | 0.0 | 0.0 | 0.00 | 0.00 | 0.00 | 96 | 1009.2 |
| 20260509122802 | 48 | 0 | 0.0 | 2.0 | 0.00 | 0.00 | 0.00 | 96 | 1009.2 |
| 20260509122305 | 47 | 0 | 0.0 | 2.0 | 0.00 | 0.00 | 0.00 | 96 | 1009.0 |
| 20260509121301 | 46 | 0 | 0.0 | 0.0 | 0.00 | 0.00 | 0.00 | 95 | 1008.9 |
| 20260509120803 | 45 | 0 | 0.0 | 1.0 | 0.00 | 0.00 | 0.00 | 95 | 1008.9 |
| 20260509120302 | 45 | 0 | 0.0 | 2.0 | 0.00 | 0.00 | 0.00 | 95 | 1008.7 |
| 20260509115803 | 45 | 0 | 0.0 | 2.0 | 0.00 | 0.00 | 0.00 | 95 | 1008.6 |
| 20260509113803 | 44 | 0 | 0.0 | 0.0 | 0.00 | 0.00 | 0.00 | 95 | 1008.5 |
| 20260509113302 | 44 | 0 | 0.0 | 0.0 | 0.00 | 0.00 | 0.00 | 95 | 1008.5 |
| 20260509112306 | 44 | 0 | 0.0 | 2.0 | 0.00 | 0.00 | 0.00 | 95 | 1008.5 |
| 20260509111802 | 44 | 0 | 0.0 | 2.0 | 0.00 | 0.00 | 0.00 | 95 | 1008.3 |
| 20260509111302 | 44 | 0 | 0.0 | 2.0 | 0.00 | 0.00 | 0.00 | 95 | 1008.3 |
| 20260509110802 | 44 | 0 | 1.0 | 2.0 | 0.00 | 0.00 | 0.00 | 95 | 1008.2 |
| 20260509110303 | 44 | 0 | 1.0 | 2.0 | 0.00 | 0.00 | 0.00 | 95 | 1008.3 |
| 20260509105802 | 44 | 0 | 1.0 | 3.0 | 0.00 | 0.00 | 0.00 | 95 | 1008.3 |
| 20260509104801 | 44 | 0 | 1.0 | 2.0 | 0.00 | 0.00 | 0.00 | 95 | 1008.2 |
| 20260509104302 | 44 | 0 | 1.0 | 2.0 | 0.00 | 0.00 | 0.00 | 94 | 1008.2 |
| 20260509103802 | 44 | 0 | 0.0 | 0.0 | 0.00 | 0.00 | 0.00 | 94 | 1008.2 |
| 20260509103302 | 44 | 0 | 0.0 | 0.0 | 0.00 | 0.00 | 0.00 | 94 | 1008.2 |
| 20260509102802 | 44 | 0 | 0.0 | 0.0 | 0.00 | 0.00 | 0.00 | 94 | 1008.3 |
| 20260509102305 | 44 | 0 | 0.0 | 0.0 | 0.00 | 0.00 | 0.00 | 94 | 1008.2 |
| 20260509101302 | 44 | 0 | 0.0 | 0.0 | 0.00 | 0.00 | 0.00 | 94 | 1008.1 |
| 20260509100802 | 44 | 0 | 0.0 | 0.0 | 0.00 | 0.00 | 0.00 | 94 | 1008.2 |
| 20260509100302 | 44 | 0 | 0.0 | 0.0 | 0.00 | 0.00 | 0.00 | 94 | 1008.1 |
| 20260509095802 | 44 | 0 | 0.0 | 0.0 | 0.00 | 0.00 | 0.00 | 94 | 1008.2 |
| 20260509095305 | 44 | 0 | 0.0 | 0.0 | 0.00 | 0.00 | 0.00 | 94 | 1008.3 |
| 20260509094802 | 45 | 0 | 0.0 | 0.0 | 0.00 | 0.00 | 0.00 | 94 | 1008.4 |
| 20260509094303 | 45 | 0 | 0.0 | 0.0 | 0.00 | 0.00 | 0.00 | 94 | 1008.4 |
| 20260509093802 | 45 | 0 | 0.0 | 0.0 | 0.00 | 0.00 | 0.00 | 94 | 1008.3 |
| 20260509093302 | 45 | 0 | 0.0 | 0.0 | 0.00 | 0.00 | 0.00 | 94 | 1008.3 |
| 20260509092802 | 45 | 0 | 0.0 | 0.0 | 0.00 | 0.00 | 0.00 | 94 | 1008.3 |
| 20260509092305 | 45 | 0 | 0.0 | 0.0 | 0.00 | 0.00 | 0.00 | 94 | 1008.3 |
| 20260509091802 | 45 | 0 | 0.0 | 0.0 | 0.00 | 0.00 | 0.00 | 94 | 1008.3 |
| 20260509091302 | 45 | 0 | 0.0 | 0.0 | 0.00 | 0.00 | 0.00 | 94 | 1008.3 |
| 20260509090801 | 45 | 0 | 0.0 | 2.0 | 0.00 | 0.00 | 0.00 | 94 | 1008.2 |
| 20260509090302 | 45 | 0 | 0.0 | 2.0 | 0.00 | 0.00 | 0.00 | 94 | 1008.3 |
| 20260509085803 | 45 | 0 | 1.0 | 2.0 | 0.00 | 0.00 | 0.00 | 94 | 1008.2 |
| 20260509085306 | 45 | 0 | 0.0 | 0.0 | 0.00 | 0.00 | 0.00 | 94 | 1008.3 |
| 20260509084302 | 46 | 0 | 0.0 | 0.0 | 0.00 | 0.00 | 0.00 | 94 | 1008.3 |
| 20260509083803 | 46 | 0 | 0.0 | 0.0 | 0.00 | 0.00 | 0.00 | 94 | 1008.4 |
| 20260509083303 | 46 | 0 | 0.0 | 0.0 | 0.00 | 0.00 | 0.00 | 94 | 1008.2 |
| 20260509082802 | 46 | 0 | 0.0 | 0.0 | 0.00 | 0.00 | 0.00 | 94 | 1008.3 |
| 20260509080803 | 46 | 0 | 0.0 | 0.0 | 0.00 | 0.00 | 0.00 | 93 | 1008.3 |
| 20260509080303 | 46 | 0 | 0.0 | 0.0 | 0.00 | 0.00 | 0.00 | 93 | 1008.3 |
| 20260509075305 | 46 | 0 | 0.0 | 0.0 | 0.00 | 0.00 | 0.00 | 93 | 1008.3 |
| 20260509074802 | 46 | 0 | 0.0 | 0.0 | 0.00 | 0.00 | 0.00 | 93 | 1008.3 |
| 20260509073802 | 47 | 0 | 0.0 | 0.0 | 0.00 | 0.00 | 0.00 | 93 | 1008.3 |
| 20260509073303 | 47 | 0 | 0.0 | 0.0 | 0.00 | 0.00 | 0.00 | 93 | 1008.4 |
| 20260509072802 | 47 | 0 | 0.0 | 0.0 | 0.00 | 0.00 | 0.00 | 93 | 1008.3 |
| 20260509071802 | 47 | 0 | 0.0 | 0.0 | 0.00 | 0.00 | 0.00 | 93 | 1008.4 |
| 20260509071302 | 47 | 0 | 0.0 | 0.0 | 0.00 | 0.00 | 0.00 | 93 | 1008.6 |
| 20260509070802 | 47 | 0 | 0.0 | 0.0 | 0.00 | 0.00 | 0.00 | 93 | 1008.6 |
| 20260509065305 | 47 | 0 | 0.0 | 0.0 | 0.00 | 0.00 | 0.00 | 93 | 1008.6 |
| 20260509064302 | 47 | 0 | 1.0 | 2.0 | 0.00 | 0.00 | 0.00 | 93 | 1008.7 |
| 20260509063805 | 47 | 0 | 0.0 | 0.0 | 0.00 | 0.00 | 0.00 | 93 | 1008.7 |
| 20260509063303 | 47 | 0 | 0.0 | 0.0 | 0.00 | 0.00 | 0.00 | 93 | 1008.7 |
| 20260509062802 | 47 | 0 | 0.0 | 0.0 | 0.00 | 0.00 | 0.00 | 93 | 1008.8 |
| 20260509062305 | 47 | 0 | 0.0 | 0.0 | 0.00 | 0.00 | 0.00 | 93 | 1008.9 |
| 20260509061802 | 47 | 0 | 0.0 | 0.0 | 0.00 | 0.00 | 0.00 | 92 | 1009.0 |
| 20260509061302 | 48 | 0 | 0.0 | 0.0 | 0.00 | 0.00 | 0.00 | 92 | 1009.0 |
| 20260509060802 | 48 | 0 | 0.0 | 0.0 | 0.00 | 0.00 | 0.00 | 92 | 1008.9 |
| 20260509060303 | 48 | 0 | 0.0 | 0.0 | 0.00 | 0.00 | 0.00 | 92 | 1008.8 |
| 20260509055803 | 48 | 0 | 0.0 | 0.0 | 0.00 | 0.00 | 0.00 | 92 | 1008.9 |
| 20260509055306 | 48 | 0 | 0.0 | 0.0 | 0.00 | 0.00 | 0.00 | 92 | 1008.8 |
| 20260509054301 | 48 | 0 | 0.0 | 0.0 | 0.00 | 0.00 | 0.00 | 92 | 1008.7 |
| 20260509053802 | 49 | 0 | 0.0 | 0.0 | 0.00 | 0.00 | 0.00 | 92 | 1008.7 |
| 20260509053302 | 49 | 0 | 0.0 | 0.0 | 0.00 | 0.00 | 0.00 | 92 | 1008.7 |
| 20260509052803 | 49 | 0 | 0.0 | 0.0 | 0.00 | 0.00 | 0.00 | 92 | 1008.8 |
| 20260509052306 | 49 | 0 | 0.0 | 0.0 | 0.00 | 0.00 | 0.00 | 92 | 1008.8 |
| 20260509051803 | 49 | 0 | 0.0 | 0.0 | 0.00 | 0.00 | 0.00 | 92 | 1008.8 |
| 20260509051303 | 49 | 0 | 0.0 | 0.0 | 0.00 | 0.00 | 0.00 | 92 | 1008.8 |
| 20260509050302 | 49 | 0 | 0.0 | 0.0 | 0.00 | 0.00 | 0.00 | 92 | 1008.9 |
| 20260509045802 | 49 | 0 | 0.0 | 0.0 | 0.00 | 0.00 | 0.00 | 91 | 1008.9 |
| 20260509045306 | 49 | 0 | 0.0 | 0.0 | 0.00 | 0.00 | 0.00 | 91 | 1008.9 |
| 20260509044802 | 49 | 0 | 0.0 | 0.0 | 0.00 | 0.00 | 0.00 | 90 | 1008.8 |
| 20260509044302 | 49 | 0 | 0.0 | 0.0 | 0.00 | 0.00 | 0.00 | 90 | 1008.8 |
| 20260509042802 | 50 | 0 | 0.0 | 0.0 | 0.00 | 0.00 | 0.00 | 90 | 1008.9 |
| 20260509042306 | 50 | 0 | 0.0 | 0.0 | 0.00 | 0.00 | 0.00 | 91 | 1008.8 |
| 20260509041802 | 50 | 0 | 0.0 | 0.0 | 0.00 | 0.00 | 0.00 | 90 | 1008.9 |
| 20260509041301 | 50 | 0 | 0.0 | 0.0 | 0.00 | 0.00 | 0.00 | 89 | 1008.8 |
| 20260509040803 | 51 | 0 | 0.0 | 0.0 | 0.00 | 0.00 | 0.00 | 89 | 1008.9 |
| 20260509040301 | 51 | 0 | 0.0 | 0.0 | 0.00 | 0.00 | 0.00 | 90 | 1008.9 |
| 20260509035802 | 51 | 0 | 0.0 | 0.0 | 0.00 | 0.00 | 0.00 | 90 | 1008.9 |
| 20260509035306 | 51 | 0 | 0.0 | 0.0 | 0.00 | 0.00 | 0.00 | 89 | 1008.9 |
| 20260509033802 | 52 | 0 | 0.0 | 0.0 | 0.00 | 0.00 | 0.00 | 90 | 1009.1 |
| 20260509033303 | 52 | 0 | 0.0 | 0.0 | 0.00 | 0.00 | 0.00 | 90 | 1009.1 |
| 20260509032301 | 52 | 0 | 0.0 | 0.0 | 0.00 | 0.00 | 0.00 | 90 | 1009.0 |
| 20260509031802 | 53 | 0 | 0.0 | 0.0 | 0.00 | 0.00 | 0.00 | 89 | 1008.9 |
| 20260509031302 | 53 | 0 | 0.0 | 0.0 | 0.00 | 0.00 | 0.00 | 89 | 1008.9 |
| 20260509030803 | 53 | 0 | 0.0 | 0.0 | 0.00 | 0.00 | 0.00 | 88 | 1009.0 |
| 20260509030303 | 53 | 0 | 0.0 | 0.0 | 0.00 | 0.00 | 0.00 | 87 | 1008.9 |
| 20260509025306 | 54 | 0 | 0.0 | 0.0 | 0.00 | 0.00 | 0.00 | 88 | 1008.8 |
| 20260509024802 | 54 | 0 | 0.0 | 0.0 | 0.00 | 0.00 | 0.00 | 87 | 1008.6 |
| 20260509023802 | 55 | 0 | 0.0 | 0.0 | 0.00 | 0.00 | 0.00 | 85 | 1008.5 |
| 20260509023302 | 55 | 0 | 0.0 | 0.0 | 0.00 | 0.00 | 0.00 | 86 | 1008.4 |
| 20260509022802 | 55 | 0 | 0.0 | 0.0 | 0.00 | 0.00 | 0.00 | 86 | 1008.5 |
| 20260509022306 | 56 | 0 | 0.0 | 0.0 | 0.00 | 0.00 | 0.00 | 84 | 1008.5 |
| 20260509021801 | 56 | 0 | 0.0 | 0.0 | 0.00 | 0.00 | 0.00 | 84 | 1008.3 |
| 20260509021303 | 56 | 0 | 0.0 | 1.0 | 0.00 | 0.00 | 0.00 | 83 | 1008.2 |
| 20260509020802 | 57 | 0 | 0.0 | 2.0 | 0.00 | 0.00 | 0.00 | 83 | 1008.3 |
| 20260509020302 | 58 | 0 | 1.0 | 2.0 | 0.00 | 0.00 | 0.00 | 83 | 1008.3 |
| 20260509015803 | 58 | 0 | 1.0 | 2.0 | 0.00 | 0.00 | 0.00 | 84 | 1008.3 |
| 20260509015306 | 58 | 0 | 0.0 | 0.0 | 0.00 | 0.00 | 0.00 | 83 | 1008.3 |
| 20260509014802 | 58 | 0 | 0.0 | 0.0 | 0.00 | 0.00 | 0.00 | 81 | 1008.1 |
| 20260509014303 | 59 | 0 | 0.0 | 0.0 | 0.00 | 0.00 | 0.00 | 81 | 1008.1 |
| 20260509013302 | 60 | 0 | 0.0 | 0.0 | 0.00 | 0.00 | 0.00 | 79 | 1008.0 |
| 20260509012802 | 61 | 0 | 0.0 | 0.0 | 0.00 | 0.00 | 0.00 | 79 | 1007.9 |
| 20260509012306 | 62 | 0 | 0.0 | 0.0 | 0.00 | 0.00 | 0.00 | 77 | 1007.9 |
| 20260509011802 | 63 | 0 | 0.0 | 0.0 | 0.00 | 0.00 | 0.00 | 76 | 1007.8 |
| 20260509011303 | 64 | 0 | 0.0 | 1.0 | 0.00 | 0.00 | 0.00 | 75 | 1007.7 |
| 20260509010801 | 64 | 0 | 0.0 | 3.0 | 0.00 | 0.00 | 0.00 | 74 | 1007.7 |
| 20260509010302 | 64 | 0 | 1.0 | 4.0 | 0.00 | 0.00 | 0.00 | 74 | 1007.6 |
| 20260509005802 | 65 | 0 | 2.0 | 4.0 | 0.00 | 0.00 | 0.00 | 74 | 1007.6 |
| 20260509005306 | 65 | 350 | 2.0 | 4.0 | 0.00 | 0.00 | 0.00 | 73 | 1007.4 |
| 20260509004801 | 65 | 355 | 2.0 | 5.0 | 0.00 | 0.00 | 0.00 | 73 | 1007.3 |
| 20260509004302 | 65 | 326 | 3.0 | 5.0 | 0.00 | 0.00 | 0.00 | 72 | 1007.2 |
| 20260509003802 | 66 | 334 | 2.0 | 5.0 | 0.00 | 0.00 | 0.00 | 72 | 1007.1 |
| 20260509003302 | 66 | 344 | 2.0 | 5.0 | 0.00 | 0.00 | 0.00 | 71 | 1007.1 |
| 20260509002802 | 67 | 351 | 4.0 | 5.0 | 0.00 | 0.00 | 0.00 | 71 | 1006.9 |
| 20260509002305 | 67 | 357 | 2.0 | 6.0 | 0.00 | 0.00 | 0.00 | 70 | 1006.7 |
| 20260509001302 | 68 | 330 | 3.0 | 9.0 | 0.00 | 0.00 | 0.00 | 70 | 1006.8 |
| 20260509000803 | 68 | 0 | 2.0 | 7.0 | 0.00 | 0.00 | 0.00 | 71 | 1006.8 |
| 20260509000303 | 69 | 0 | 4.0 | 7.0 | 0.00 | 0.00 | 0.00 | 70 | 1006.8 |
| 20260508235801 | 69 | 340 | 4.0 | 7.0 | 0.00 | 0.00 | 0.00 | 68 | 1006.7 |
| 20260508235306 | 69 | 340 | 4.0 | 6.0 | 0.00 | 0.00 | 0.00 | 69 | 1006.7 |
| 20260508234303 | 69 | 324 | 3.0 | 6.0 | 0.00 | 0.00 | 0.00 | 70 | 1006.7 |
| 20260508233802 | 69 | 355 | 2.0 | 5.0 | 0.00 | 0.00 | 0.00 | 69 | 1006.7 |
| 20260508233303 | 69 | 324 | 2.0 | 4.0 | 0.00 | 0.00 | 0.00 | 68 | 1006.7 |
| 20260508232302 | 68 | 290 | 2.0 | 4.0 | 0.00 | 0.00 | 0.00 | 71 | 1006.8 |
| 20260508231801 | 68 | 300 | 1.0 | 3.0 | 0.00 | 0.00 | 0.00 | 73 | 1006.6 |
| 20260508231302 | 67 | 276 | 0.0 | 4.0 | 0.00 | 0.00 | 0.00 | 73 | 1006.8 |
| 20260508230802 | 67 | 255 | 2.0 | 4.0 | 0.00 | 0.00 | 0.00 | 73 | 1006.8 |
| 20260508230303 | 66 | 324 | 2.0 | 4.0 | 0.00 | 0.00 | 0.00 | 74 | 1007.1 |
| 20260508225804 | 66 | 200 | 2.0 | 3.0 | 0.00 | 0.00 | 0.00 | 74 | 1006.9 |
| 20260508224802 | 65 | 200 | 0.0 | 4.0 | 0.00 | 0.00 | 0.00 | 73 | 1006.8 |
| 20260508224303 | 65 | 141 | 1.0 | 3.0 | 0.00 | 0.00 | 0.00 | 75 | 1006.7 |
| 20260508223802 | 65 | 30 | 1.0 | 3.0 | 0.00 | 0.00 | 0.00 | 74 | 1006.8 |
| 20260508221302 | 65 | 35 | 3.0 | 10.0 | 0.00 | 0.00 | 0.00 | 73 | 1007.1 |
| 20260508220802 | 65 | 14 | 6.0 | 10.0 | 0.00 | 0.00 | 0.00 | 76 | 1006.9 |
| 20260508220303 | 65 | 0 | 6.0 | 12.0 | 0.00 | 0.00 | 0.00 | 74 | 1006.9 |
| 20260508215802 | 65 | 3 | 7.0 | 12.0 | 0.00 | 0.00 | 0.00 | 74 | 1007.1 |
| 20260508215306 | 65 | 326 | 9.0 | 15.0 | 0.00 | 0.00 | 0.00 | 75 | 1007.3 |
| 20260508214301 | 65 | 0 | 9.0 | 12.0 | 0.00 | 0.00 | 0.00 | 77 | 1007.4 |
| 20260508213302 | 65 | 344 | 8.0 | 13.0 | 0.00 | 0.00 | 0.00 | 78 | 1007.6 |
| 20260508212802 | 65 | 351 | 9.0 | 13.0 | 0.00 | 0.00 | 0.00 | 77 | 1007.7 |
| 20260508212306 | 66 | 345 | 8.0 | 16.0 | 0.00 | 0.00 | 0.00 | 78 | 1007.6 |
| 20260508211804 | 66 | 0 | 9.0 | 16.0 | 0.00 | 0.00 | 0.00 | 77 | 1007.6 |
| 20260508211302 | 66 | 0 | 8.0 | 13.0 | 0.00 | 0.00 | 0.00 | 79 | 1007.8 |
| 20260508210802 | 65 | 1 | 8.0 | 13.0 | 0.00 | 0.00 | 0.00 | 80 | 1007.8 |
| 20260508210302 | 65 | 344 | 8.0 | 14.0 | 0.00 | 0.00 | 0.00 | 78 | 1007.9 |
| 20260508205802 | 66 | 353 | 8.0 | 14.0 | 0.00 | 0.00 | 0.00 | 77 | 1008.0 |
| 20260508205305 | 67 | 314 | 9.0 | 13.0 | 0.00 | 0.00 | 0.00 | 75 | 1008.1 |
| 20260508204802 | 68 | 3 | 9.0 | 13.0 | 0.00 | 0.00 | 0.00 | 74 | 1008.2 |
| 20260508204302 | 69 | 305 | 4.0 | 9.0 | 0.00 | 0.00 | 0.00 | 73 | 1008.1 |
| 20260508203802 | 69 | 227 | 3.0 | 5.0 | 0.00 | 0.00 | 0.00 | 72 | 1008.1 |
| 20260508203301 | 69 | 316 | 1.0 | 7.0 | 0.00 | 0.00 | 0.00 | 74 | 1008.1 |
| 20260508202802 | 68 | 305 | 4.0 | 9.0 | 0.00 | 0.00 | 0.00 | 73 | 1008.0 |
| 20260508202306 | 68 | 337 | 3.0 | 11.0 | 0.00 | 0.00 | 0.00 | 72 | 1008.0 |
| 20260508201802 | 68 | 312 | 5.0 | 11.0 | 0.00 | 0.00 | 0.00 | 73 | 1008.0 |
| 20260508201302 | 68 | 345 | 4.0 | 6.0 | 0.00 | 0.00 | 0.00 | 72 | 1008.0 |
| 20260508200802 | 69 | 324 | 4.0 | 6.0 | 0.00 | 0.00 | 0.00 | 71 | 1007.9 |
| 20260508195802 | 68 | 7 | 4.0 | 6.0 | 0.00 | 0.00 | 0.00 | 72 | 1007.6 |
| 20260508195305 | 68 | 348 | 2.0 | 5.0 | 0.00 | 0.00 | 0.00 | 74 | 1007.8 |
| 20260508194802 | 68 | 0 | 3.0 | 5.0 | 0.00 | 0.00 | 0.00 | 74 | 1008.0 |
| 20260508194303 | 68 | 258 | 2.0 | 5.0 | 0.00 | 0.00 | 0.00 | 74 | 1008.2 |
| 20260508193303 | 68 | 290 | 3.0 | 5.0 | 0.00 | 0.00 | 0.00 | 74 | 1008.4 |
| 20260508192802 | 68 | 234 | 3.0 | 7.0 | 0.00 | 0.00 | 0.00 | 73 | 1008.5 |
| 20260508192305 | 68 | 235 | 2.0 | 7.0 | 0.00 | 0.00 | 0.00 | 74 | 1008.0 |
| 20260508191802 | 68 | 176 | 3.0 | 9.0 | 0.00 | 0.00 | 0.00 | 72 | 1007.6 |
| 20260508191302 | 68 | 161 | 3.0 | 9.0 | 0.00 | 0.00 | 0.00 | 73 | 1007.3 |
| 20260508190802 | 68 | 148 | 5.0 | 9.0 | 0.00 | 0.00 | 0.00 | 73 | 1007.4 |
| 20260508190302 | 68 | 114 | 2.0 | 5.0 | 0.00 | 0.00 | 0.00 | 70 | 1007.3 |
| 20260508185802 | 69 | 94 | 3.0 | 5.0 | 0.00 | 0.00 | 0.00 | 72 | 1007.3 |
| 20260508185306 | 69 | 183 | 2.0 | 6.0 | 0.00 | 0.00 | 0.00 | 72 | 1007.7 |
| 20260508184802 | 69 | 199 | 4.0 | 6.0 | 0.00 | 0.00 | 0.00 | 71 | 1008.0 |
| 20260508184302 | 69 | 168 | 2.0 | 6.0 | 0.00 | 0.00 | 0.00 | 70 | 1008.1 |
| 20260508183803 | 69 | 207 | 4.0 | 6.0 | 0.00 | 0.00 | 0.00 | 69 | 1008.5 |
| 20260508183302 | 69 | 186 | 2.0 | 6.0 | 0.00 | 0.00 | 0.00 | 71 | 1008.6 |
| 20260508182803 | 69 | 175 | 2.0 | 6.0 | 0.00 | 0.00 | 0.00 | 69 | 1008.7 |
| 20260508182306 | 69 | 251 | 4.0 | 9.0 | 0.00 | 0.00 | 0.00 | 70 | 1008.5 |
| 20260508181803 | 69 | 235 | 2.0 | 9.0 | 0.00 | 0.00 | 0.00 | 69 | 1008.6 |
| 20260508180802 | 68 | 186 | 2.0 | 5.0 | 0.00 | 0.00 | 0.00 | 71 | 1008.8 |
| 20260508174802 | 69 | 189 | 5.0 | 7.0 | 0.00 | 0.00 | 0.00 | 68 | 1008.7 |
| 20260508174302 | 69 | 212 | 3.0 | 12.0 | 0.00 | 0.00 | 0.00 | 68 | 1008.7 |
| 20260508173803 | 69 | 192 | 5.0 | 12.0 | 0.00 | 0.00 | 0.00 | 69 | 1008.7 |
| 20260508173302 | 69 | 155 | 6.0 | 10.0 | 0.00 | 0.00 | 0.00 | 69 | 1008.9 |
| 20260508172802 | 68 | 221 | 4.0 | 9.0 | 0.00 | 0.00 | 0.00 | 69 | 1008.9 |
| 20260508172306 | 68 | 197 | 4.0 | 7.0 | 0.00 | 0.00 | 0.00 | 69 | 1008.9 |
| 20260508171802 | 68 | 180 | 3.0 | 7.0 | 0.00 | 0.00 | 0.00 | 69 | 1008.9 |
| 20260508171303 | 68 | 168 | 3.0 | 9.0 | 0.00 | 0.00 | 0.00 | 70 | 1009.1 |
| 20260508170325 | 68 | 195 | 4.0 | 11.0 | 0.00 | 0.00 | 0.00 | 70 | 1008.9 |
| 20260508165306 | 66 | 148 | 4.0 | 9.0 | 0.00 | 0.00 | 0.00 | 72 | 1008.8 |
| 20260508164801 | 66 | 120 | 4.0 | 9.0 | 0.00 | 0.00 | 0.00 | 74 | 1008.9 |
| 20260508164302 | 65 | 178 | 2.0 | 5.0 | 0.00 | 0.00 | 0.00 | 74 | 1009.0 |
| 20260508163302 | 64 | 154 | 2.0 | 6.0 | 0.00 | 0.00 | 0.00 | 74 | 1009.1 |
| 20260508162300 | 63 | 162 | 2.0 | 4.0 | 0.00 | 0.00 | 0.00 | 76 | 1009.1 |
| 20260508161800 | 63 | 138 | 2.0 | 10.0 | 0.00 | 0.00 | 0.00 | 74 | 1009.1 |
| 20260508160800 | 63 | 202 | 2.0 | 5.0 | 0.00 | 0.00 | 0.00 | 75 | 1009.2 |
| 20260508160258 | 63 | 169 | 2.0 | 4.0 | 0.00 | 0.00 | 0.00 | 75 | 1009.4 |
| 20260508155255 | 63 | 223 | 3.0 | 5.0 | 0.00 | 0.00 | 0.00 | 74 | 1009.6 |